sat.trackr.live / text

‹ back to catalog

STARLINK-11361 [DTC]

NORAD 61585 · 2024-187M

PAYLOAD ACTIVE UNKNOWN

§ Identity

Operator
Country
US
Launch date
2024-10-18
Launch site
AFETR
Launch vehicle
Mass (kg)
RCS (m²)

Purposes: comms

External: N2YO · Heavens-Above · Gunter

§ Orbital elements

Epoch: 2026-05-24T16:19:31.406304Z

Period
91.74 min
Inclination
53.1574°
Eccentricity
0.0001308
Mean motion
15.69726834 rev/d
Perigee alt
358.8 km
Apogee alt
360.6 km
Semi-major
6,737.8 km
B*
1.1349e-3
RAAN
281.7796°
Arg perigee
44.2335°
Mean anomaly
315.8787°
Rev number
9,268

§ Raw data

STARLINK-11361 [DTC]1 61585U 24187M   26144.68022461  .00139328  00000+0  11349-2 0  99982 61585  53.1574 281.7796 0001308  44.2335 315.8787 15.69726834 92680

JSON: /api/v1/satellites/61585 · /tle

For live sub-satellite position, see the globe view (requires WebGL).

§ Visibility from observer

Set your observer location to see the next 7 days of passes ≥ 10°. The values pass through the URL so the page stays shareable.

No JS? Fill the form by hand. The geolocation button needs JavaScript.